Weather History for Savannah Hunter, GA

Change the Weather History Date:

Wednesday, December 12, 2012

  Actual Average Record
Temperature  
Mean Temperature 54 °F -  
Max Temperature 59 °F 61 °F 79 °F (2007)
Min Temperature 50 °F 41 °F 32 °F (2003)
Degree Days  
Heating Degree Days 10    
Growing Degree Days 4 (Base 50)    
Moisture  
Dew Point 52 °F    
Average Humidity 92    
Maximum Humidity 100    
Minimum Humidity 81    
Precipitation  
Precipitation 0.44 in - - ()
Sea Level Pressure  
Sea Level Pressure 30.12 in    
Wind  
Wind Speed 8 mph (North)    
Max Wind Speed 13 mph    
Max Gust Speed 20 mph    
Visibility 10 miles    
Events Rain    
Averages and records for this station are not official NWS values.
T = Trace of Precipitation, MM = Missing Value Source: NWS Daily Summary

Daily Weather History Graph

Daily Weather History Graph

Search for Another Location

Airport:

Trip Planner

Search our weather history database for the weather conditions in past years. The results will help you decide how hot, cold, wet, or windy it might be!

Date:

Astronomy

Dec. 12, 2012 Rise Set
Actual Time 7:16 AM EST 5:21 PM EST
Civil Twilight 6:49 AM EST 5:48 PM EST
Nautical Twilight 6:18 AM EST 6:18 PM EST
Astronomical Twilight 5:48 AM EST 6:48 PM EST
Moon 6:20 AM EST (12/12) 4:55 PM EST (12/12)
Length of Visible Light 10h 59m
Length of Day
10h 05m
Waning Crescent, 1% of the Moon is Illuminated
Dec 12
Waning Crescent
Dec 13
New
Dec 20
First Quarter
Dec 28
Full
Jan 4
Last Quarter

Hourly Weather History & Observations

Time (EST) Temp. Dew Point Humidity Pressure Visibility Wind Dir Wind Speed Gust Speed Precip Events Conditions
12:16 AM 59.0 °F 55.4 °F 88% 30.06 in 10.0 mi North 8.1 mph - N/A   Overcast
12:55 AM 58.3 °F 52.9 °F 82% 30.08 in 10.0 mi NW 9.2 mph - N/A   Overcast
1:00 AM 57.2 °F 51.8 °F 82% 30.08 in 10.0 mi NW 6.9 mph - N/A   Overcast
1:29 AM 57.2 °F 51.8 °F 82% 30.08 in 10.0 mi NNW 6.9 mph - N/A   Overcast
1:51 AM 57.2 °F 51.8 °F 82% 30.08 in 10.0 mi NNW 6.9 mph - N/A Rain Light Rain
1:55 AM 57.4 °F 51.4 °F 81% 30.08 in 10.0 mi NNW 5.8 mph - 0.00 in Rain Light Rain
2:02 AM 57.2 °F 51.8 °F 82% 30.09 in 10.0 mi NW 6.9 mph - N/A   Overcast
2:36 AM 57.2 °F 51.8 °F 82% 30.09 in 10.0 mi NW 9.2 mph - N/A Rain Light Rain
2:45 AM 57.2 °F 51.8 °F 82% 30.09 in 10.0 mi NNW 8.1 mph - N/A   Overcast
2:55 AM 56.5 °F 52.2 °F 85% 30.09 in 10.0 mi NW 8.1 mph - 0.00 in   Light Drizzle
3:10 AM 55.4 °F 53.6 °F 94% 30.09 in 7.0 mi NW 8.1 mph - N/A Rain Light Rain
3:17 AM 55.4 °F 53.6 °F 94% 30.09 in 10.0 mi NNW 5.8 mph - N/A   Overcast
3:55 AM 55.0 °F 52.5 °F 91% 30.08 in 10.0 mi NNW 5.8 mph - 0.02 in   Overcast
4:55 AM 55.0 °F 52.3 °F 91% 30.07 in 10.0 mi NW 9.2 mph - N/A   Overcast
5:55 AM 54.1 °F 50.2 °F 86% 30.09 in 10.0 mi North 5.8 mph - N/A   Overcast
6:55 AM 53.8 °F 49.5 °F 85% 30.11 in 10.0 mi NNW 4.6 mph - N/A   Overcast
6:58 AM 53.6 °F 50.0 °F 88% 30.11 in 10.0 mi NNW 4.6 mph - N/A   Light Drizzle
7:55 AM 53.4 °F 50.5 °F 90% 30.08 in 10.0 mi Variable 4.6 mph - 0.02 in Rain Light Rain
8:55 AM 53.8 °F 51.6 °F 92% 30.12 in 10.0 mi NNW 5.8 mph - 0.04 in   Light Drizzle
9:00 AM 53.6 °F 51.8 °F 94% 30.12 in 10.0 mi North 4.6 mph - N/A   Mostly Cloudy
9:27 AM 53.6 °F 51.8 °F 94% 30.14 in 10.0 mi NNE 4.6 mph - N/A   Overcast
9:37 AM 53.6 °F 51.8 °F 94% 30.11 in 10.0 mi North 9.2 mph - N/A   Overcast
9:46 AM 53.6 °F 51.8 °F 94% 30.13 in 10.0 mi North 9.2 mph - N/A   Overcast
9:55 AM 54.1 °F 52.0 °F 92% 30.13 in 10.0 mi North 9.2 mph - 0.00 in   Overcast
9:58 AM 53.6 °F 51.8 °F 94% 30.13 in 10.0 mi North 10.4 mph - N/A   Overcast
10:40 AM 55.4 °F 53.6 °F 94% 30.14 in 10.0 mi North 6.9 mph - N/A   Light Drizzle
10:47 AM 55.4 °F 53.6 °F 94% 30.14 in 10.0 mi NNE 6.9 mph - N/A   Light Drizzle
10:55 AM 55.4 °F 53.1 °F 92% 30.14 in 9.0 mi North 5.8 mph - 0.00 in Rain Light Rain
10:56 AM 55.4 °F 53.6 °F 94% 30.13 in 5.0 mi North 9.2 mph - N/A Rain Light Rain
10:59 AM 55.4 °F 53.6 °F 94% 30.13 in 9.0 mi North 9.2 mph - N/A Rain Rain
11:09 AM 55.4 °F 53.6 °F 94% 30.14 in 10.0 mi NNW 8.1 mph - N/A Rain Light Rain
11:23 AM 55.4 °F 53.6 °F 94% 30.14 in 10.0 mi NNE 6.9 mph - N/A   Overcast
11:55 AM 55.8 °F 53.8 °F 93% 30.14 in 10.0 mi North 4.6 mph - 0.01 in   Overcast
12:19 PM 57.2 °F 53.6 °F 88% 30.12 in 10.0 mi North 5.8 mph - N/A   Overcast
12:38 PM 57.2 °F 53.6 °F 88% 30.11 in 9.0 mi NNE 5.8 mph - N/A   Overcast
12:55 PM 56.8 °F 54.3 °F 91% 30.11 in 10.0 mi NNW 8.1 mph - 0.00 in Rain Light Rain
1:01 PM 57.2 °F 55.4 °F 94% 30.11 in 6.0 mi NNW 9.2 mph - N/A Rain Heavy Rain
1:34 PM 57.2 °F 53.6 °F 88% 30.11 in 10.0 mi NNW 8.1 mph - N/A   Light Drizzle
1:40 PM 57.2 °F 53.6 °F 88% 30.10 in 10.0 mi NNW 8.1 mph - N/A   Overcast
1:47 PM 57.2 °F 53.6 °F 88% 30.12 in 10.0 mi NW 8.1 mph - N/A   Overcast
1:48 PM 57.2 °F 53.6 °F 88% 30.12 in 10.0 mi NW 9.2 mph - N/A   Overcast
1:55 PM 56.1 °F 53.6 °F 91% 30.13 in 10.0 mi WNW 12.7 mph - 0.04 in   Overcast
2:03 PM 55.4 °F 53.6 °F 94% 30.13 in 10.0 mi NW 11.5 mph - N/A Rain Light Rain
2:11 PM 55.4 °F 53.6 °F 94% 30.12 in 7.0 mi NNW 8.1 mph - N/A Rain Rain
2:25 PM 55.4 °F 53.6 °F 94% 30.10 in 10.0 mi North 6.9 mph - N/A Rain Light Rain
2:36 PM 55.4 °F 53.6 °F 94% 30.11 in 10.0 mi NNE 5.8 mph - N/A   Mostly Cloudy
2:45 PM 55.4 °F 53.6 °F 94% 30.11 in 10.0 mi NNW 8.1 mph - N/A   Mostly Cloudy
2:46 PM 55.4 °F 53.6 °F 94% 30.11 in 10.0 mi North 8.1 mph - N/A Rain Light Rain
2:55 PM 55.0 °F 52.9 °F 92% 30.12 in 10.0 mi NNW 6.9 mph - 0.01 in Rain Light Rain
3:03 PM 55.4 °F 53.6 °F 94% 30.11 in 10.0 mi NNE 8.1 mph - N/A Rain Light Rain
3:39 PM 53.6 °F 51.8 °F 94% 30.12 in 9.0 mi North 5.8 mph - N/A Rain Light Rain
3:55 PM 54.1 °F 52.2 °F 93% 30.12 in 10.0 mi NNE 9.2 mph - 0.02 in Rain Light Rain
4:20 PM 53.6 °F 51.8 °F 94% 30.10 in 10.0 mi NE 9.2 mph - N/A Rain Light Rain
4:30 PM 53.6 °F 51.8 °F 94% 30.12 in 10.0 mi NNE 8.1 mph - N/A   Light Drizzle
4:55 PM 53.4 °F 51.6 °F 94% 30.13 in 10.0 mi North 8.1 mph - 0.02 in Rain Light Rain
5:31 PM 53.6 °F 51.8 °F 94% 30.14 in 10.0 mi North 5.8 mph - N/A Rain Light Rain
5:35 PM 53.6 °F 51.8 °F 94% 30.13 in 10.0 mi NNE 8.1 mph - N/A Rain Light Rain
5:55 PM 52.7 °F 51.1 °F 94% 30.12 in 10.0 mi NNE 9.2 mph - 0.02 in Rain Light Rain
6:10 PM 53.6 °F 51.8 °F 94% 30.12 in 10.0 mi NNE 8.1 mph - N/A   Light Drizzle
6:20 PM 53.6 °F 51.8 °F 94% 30.13 in 10.0 mi NNE 8.1 mph - N/A   Overcast
6:35 PM 53.6 °F 51.8 °F 94% 30.15 in 10.0 mi NNE 4.6 mph - N/A Rain Light Rain
6:47 PM 53.6 °F 51.8 °F 94% 30.14 in 7.0 mi NE 4.6 mph - N/A Rain Rain
6:55 PM 52.9 °F 51.4 °F 95% 30.13 in 7.0 mi NE 5.8 mph - 0.03 in Rain Light Rain
7:08 PM 53.6 °F 51.8 °F 94% 30.13 in 8.0 mi East 9.2 mph - N/A Rain Light Rain
7:13 PM 51.8 °F 51.8 °F 100% 30.13 in 10.0 mi ENE 8.1 mph - N/A Rain Light Rain
7:17 PM 51.8 °F 51.8 °F 100% 30.13 in 10.0 mi East 10.4 mph - N/A Rain Light Rain
7:32 PM 51.8 °F 50.0 °F 94% 30.14 in 8.0 mi NE 8.1 mph - N/A Rain Rain
7:34 PM 51.8 °F 50.0 °F 94% 30.13 in 7.0 mi ENE 10.4 mph - N/A Rain Rain
7:38 PM 51.8 °F 50.0 °F 94% 30.13 in 7.0 mi ENE 10.4 mph - N/A Rain Light Rain
7:43 PM 51.8 °F 50.0 °F 94% 30.12 in 8.0 mi ENE 10.4 mph 17.3 mph N/A Rain Light Rain
7:55 PM 51.6 °F 50.2 °F 95% 30.11 in 10.0 mi NE 10.4 mph - 0.06 in Rain Light Rain
8:03 PM 51.8 °F 50.0 °F 94% 30.11 in 10.0 mi ENE 9.2 mph - N/A Rain Light Rain
8:17 PM 51.8 °F 50.0 °F 94% 30.12 in 10.0 mi ENE 9.2 mph - N/A   Light Drizzle
8:20 PM 51.8 °F 50.0 °F 94% 30.11 in 10.0 mi NE 8.1 mph - N/A   Overcast
8:22 PM 51.8 °F 50.0 °F 94% 30.12 in 10.0 mi ENE 6.9 mph - N/A   Light Drizzle
8:55 PM 51.8 °F 50.4 °F 95% 30.10 in 7.0 mi ENE 9.2 mph - 0.05 in Rain Light Rain
9:24 PM 51.8 °F 50.0 °F 94% 30.09 in 10.0 mi ENE 11.5 mph 19.6 mph N/A Rain Light Rain
9:38 PM 51.8 °F 50.0 °F 94% 30.12 in 10.0 mi NE 6.9 mph - N/A Rain Light Rain
9:46 PM 51.8 °F 50.0 °F 94% 30.13 in 10.0 mi North 6.9 mph - N/A Rain Light Rain
9:53 PM 51.8 °F 50.0 °F 94% 30.14 in 10.0 mi North 8.1 mph - N/A Rain Light Rain
9:55 PM 51.4 °F 50.0 °F 95% 30.15 in 10.0 mi North 6.9 mph - 0.03 in Rain Light Rain
10:00 PM 51.8 °F 50.0 °F 94% 30.15 in 10.0 mi North 6.9 mph - N/A Rain Light Rain
10:30 PM 51.8 °F 50.0 °F 94% 30.15 in 10.0 mi North 4.6 mph - N/A Rain Light Rain
10:53 PM 51.8 °F 50.0 °F 94% 30.14 in 10.0 mi NNE 6.9 mph - N/A   Light Drizzle
10:55 PM 51.1 °F 49.6 °F 95% 30.14 in 10.0 mi NE 6.9 mph - 0.01 in Rain Light Rain
11:02 PM 51.8 °F 50.0 °F 94% 30.16 in 10.0 mi NNE 3.5 mph - N/A Rain Light Rain
11:46 PM 50.0 °F 50.0 °F 100% 30.17 in 9.0 mi North 8.1 mph - N/A Rain Light Rain
11:48 PM 50.0 °F 50.0 °F 100% 30.17 in 10.0 mi NNW 6.9 mph - N/A Rain Light Rain
11:55 PM 50.5 °F 49.3 °F 95% 30.17 in 10.0 mi NNW 11.5 mph - 0.06 in Rain Light Rain